Time,TemperatureF,DewpointF,PressureIn,WindDirection,WindDirectionDegrees,WindSpeedMPH,WindSpeedGustMPH,Humidity,HourlyPrecipIn,Conditions,Clouds,dailyrainin,SoftwareType,DateUTC
2013-08-08 00:00:00,79.1,76.9,30.01,ENE,59,0.0,7.0,93,0.00,,,0.00,Wunderground v.1.15,2013-08-08 04:00:00,
2013-08-08 00:10:00,79.0,76.8,30.01,ENE,59,0.0,7.0,93,0.00,,,0.00,Wunderground v.1.15,2013-08-08 04:10:00,
2013-08-08 00:20:00,78.8,76.6,30.01,ENE,59,0.0,7.0,93,0.00,,,0.00,Wunderground v.1.15,2013-08-08 04:20:00,
2013-08-08 00:30:00,78.6,76.4,30.00,ENE,59,0.0,7.0,93,0.00,,,0.00,Wunderground v.1.15,2013-08-08 04:30:00,
2013-08-08 00:40:00,78.5,76.6,30.01,ENE,59,0.0,7.0,94,0.00,,,0.00,Wunderground v.1.15,2013-08-08 04:40:00,
2013-08-08 00:50:00,78.3,76.4,30.01,ENE,59,0.0,7.0,94,0.00,,,0.00,Wunderground v.1.15,2013-08-08 04:50:00,
2013-08-08 01:00:00,78.2,76.3,30.00,ENE,59,0.0,7.0,94,0.00,,,0.00,Wunderground v.1.15,2013-08-08 05:00:00,
2013-08-08 01:10:00,78.0,76.1,30.00,ENE,59,0.0,7.0,94,0.00,,,0.00,Wunderground v.1.15,2013-08-08 05:10:00,
2013-08-08 01:20:00,78.0,76.5,30.00,ENE,59,0.0,7.0,95,0.00,,,0.00,Wunderground v.1.15,2013-08-08 05:20:00,
2013-08-08 01:30:00,77.8,76.3,30.00,ENE,59,0.0,7.0,95,0.00,,,0.00,Wunderground v.1.15,2013-08-08 05:30:00,
2013-08-08 01:40:00,77.7,76.2,30.00,ENE,59,0.0,7.0,95,0.00,,,0.00,Wunderground v.1.15,2013-08-08 05:40:00,
2013-08-08 01:50:00,77.8,76.3,29.99,ENE,59,0.0,7.0,95,0.00,,,0.00,Wunderground v.1.15,2013-08-08 05:50:00,
2013-08-08 02:00:00,77.7,76.5,29.99,ENE,59,0.0,7.0,96,0.00,,,0.00,Wunderground v.1.15,2013-08-08 06:00:00,
2013-08-08 02:10:00,77.7,76.5,29.99,ENE,59,0.0,7.0,96,0.00,,,0.00,Wunderground v.1.15,2013-08-08 06:10:00,
2013-08-08 02:20:00,77.6,76.4,29.99,ENE,59,0.0,7.0,96,0.00,,,0.00,Wunderground v.1.15,2013-08-08 06:20:00,
2013-08-08 02:30:00,77.5,76.3,29.99,ENE,59,0.0,7.0,96,0.00,,,0.00,Wunderground v.1.15,2013-08-08 06:30:00,
2013-08-08 02:40:00,77.6,76.4,29.99,ENE,59,0.0,7.0,96,0.00,,,0.00,Wunderground v.1.15,2013-08-08 06:40:00,
2013-08-08 02:50:00,77.5,76.3,29.98,ENE,59,0.0,7.0,96,0.00,,,0.00,Wunderground v.1.15,2013-08-08 06:50:00,
2013-08-08 03:00:00,77.4,76.2,29.98,ENE,59,0.0,7.0,96,0.00,,,0.00,Wunderground v.1.15,2013-08-08 07:00:00,
2013-08-08 03:10:00,77.4,76.2,29.98,ENE,59,0.0,7.0,96,0.00,,,0.00,Wunderground v.1.15,2013-08-08 07:10:00,
2013-08-08 03:20:00,77.4,76.2,29.98,ENE,59,0.0,7.0,96,0.00,,,0.00,Wunderground v.1.15,2013-08-08 07:20:00,
2013-08-08 03:30:00,77.3,76.1,29.98,ENE,59,0.0,7.0,96,0.00,,,0.00,Wunderground v.1.15,2013-08-08 07:30:00,
2013-08-08 03:40:00,77.4,76.5,29.97,ENE,59,0.0,7.0,97,0.00,,,0.00,Wunderground v.1.15,2013-08-08 07:40:00,
2013-08-08 03:50:00,77.4,76.5,29.97,ENE,59,0.0,7.0,97,0.00,,,0.00,Wunderground v.1.15,2013-08-08 07:50:00,
2013-08-08 04:00:00,77.6,76.7,29.97,ENE,59,0.0,7.0,97,0.00,,,0.00,Wunderground v.1.15,2013-08-08 08:00:00,
2013-08-08 04:10:00,77.5,76.6,29.97,ENE,59,0.0,7.0,97,0.00,,,0.00,Wunderground v.1.15,2013-08-08 08:10:00,
2013-08-08 04:20:00,77.5,76.6,29.97,ENE,59,0.0,7.0,97,0.00,,,0.00,Wunderground v.1.15,2013-08-08 08:20:00,
2013-08-08 04:30:00,77.5,76.6,29.97,ENE,59,0.0,7.0,97,0.00,,,0.00,Wunderground v.1.15,2013-08-08 08:30:00,
2013-08-08 04:40:00,77.4,76.5,29.98,ENE,59,0.0,7.0,97,0.00,,,0.00,Wunderground v.1.15,2013-08-08 08:40:00,
2013-08-08 04:50:00,77.4,76.5,29.97,ENE,59,0.0,7.0,97,0.00,,,0.00,Wunderground v.1.15,2013-08-08 08:50:00,
2013-08-08 05:00:00,77.3,76.4,29.97,ENE,59,0.0,7.0,97,0.00,,,0.00,Wunderground v.1.15,2013-08-08 09:00:00,
2013-08-08 05:10:00,77.4,76.5,29.98,ENE,59,0.0,7.0,97,0.00,,,0.00,Wunderground v.1.15,2013-08-08 09:10:00,
2013-08-08 05:20:00,77.5,76.6,29.98,ENE,59,0.0,7.0,97,0.00,,,0.00,Wunderground v.1.15,2013-08-08 09:20:00,
2013-08-08 05:30:00,77.4,76.5,29.98,ENE,59,0.0,7.0,97,0.00,,,0.00,Wunderground v.1.15,2013-08-08 09:30:00,
2013-08-08 05:40:00,77.4,76.5,29.98,ENE,59,0.0,7.0,97,0.00,,,0.00,Wunderground v.1.15,2013-08-08 09:40:00,
2013-08-08 05:50:00,77.4,76.5,29.98,ENE,59,0.0,7.0,97,0.00,,,0.00,Wunderground v.1.15,2013-08-08 09:50:00,
2013-08-08 06:00:00,77.5,76.6,29.98,ENE,59,0.0,7.0,97,0.00,,,0.00,Wunderground v.1.15,2013-08-08 10:00:00,
2013-08-08 06:10:00,77.6,76.7,29.98,ENE,59,0.0,7.0,97,0.00,,,0.00,Wunderground v.1.15,2013-08-08 10:10:00,
2013-08-08 06:20:00,77.6,76.7,29.98,ENE,59,0.0,7.0,97,0.00,,,0.00,Wunderground v.1.15,2013-08-08 10:20:00,
2013-08-08 06:30:00,77.6,76.7,29.98,ENE,59,0.0,7.0,97,0.00,,,0.00,Wunderground v.1.15,2013-08-08 10:30:00,
2013-08-08 06:40:00,77.6,76.7,29.99,ENE,59,0.0,7.0,97,0.00,,,0.00,Wunderground v.1.15,2013-08-08 10:40:00,
2013-08-08 06:50:00,77.6,76.7,29.99,ENE,59,0.0,7.0,97,0.00,,,0.00,Wunderground v.1.15,2013-08-08 10:50:00,
2013-08-08 07:00:00,77.7,76.8,29.99,ENE,59,0.0,7.0,97,0.00,,,0.00,Wunderground v.1.15,2013-08-08 11:00:00,
2013-08-08 07:10:00,77.7,76.8,29.99,ENE,59,0.0,7.0,97,0.00,,,0.00,Wunderground v.1.15,2013-08-08 11:10:00,
2013-08-08 07:20:00,77.9,77.0,29.99,ENE,59,0.0,7.0,97,0.00,,,0.00,Wunderground v.1.15,2013-08-08 11:20:00,
2013-08-08 07:30:00,78.0,77.4,29.99,ENE,59,0.0,7.0,98,0.00,,,0.00,Wunderground v.1.15,2013-08-08 11:30:00,
2013-08-08 07:40:00,78.2,77.3,30.00,SE,126,0.0,7.0,97,0.00,,,0.00,Wunderground v.1.15,2013-08-08 11:40:00,
2013-08-08 07:50:00,78.4,77.5,30.00,East,99,0.0,7.0,97,0.00,,,0.00,Wunderground v.1.15,2013-08-08 11:50:00,
2013-08-08 08:00:00,78.7,77.8,30.00,ESE,123,0.0,7.0,97,0.00,,,0.00,Wunderground v.1.15,2013-08-08 12:00:00,
2013-08-08 08:10:00,79.0,77.8,30.00,ENE,74,0.0,7.0,96,0.00,,,0.00,Wunderground v.1.15,2013-08-08 12:10:00,
2013-08-08 08:20:00,79.5,77.9,30.00,South,182,0.0,7.0,95,0.00,,,0.00,Wunderground v.1.15,2013-08-08 12:20:00,
2013-08-08 08:30:00,79.9,77.7,30.00,East,80,0.0,7.0,93,0.00,,,0.00,Wunderground v.1.15,2013-08-08 12:30:00,
2013-08-08 08:40:00,80.3,77.8,30.01,ENE,76,0.0,7.0,92,0.00,,,0.00,Wunderground v.1.15,2013-08-08 12:40:00,
2013-08-08 08:50:00,81.0,77.4,30.01,ESE,123,1.0,1.0,89,0.00,,,0.00,Wunderground v.1.15,2013-08-08 12:50:00,
2013-08-08 09:00:00,81.7,78.1,30.01,ENE,74,0.0,7.0,89,0.00,,,0.00,Wunderground v.1.15,2013-08-08 13:00:00,
2013-08-08 09:10:00,82.4,78.1,30.01,ESE,120,0.0,7.0,87,0.00,,,0.00,Wunderground v.1.15,2013-08-08 13:10:00,
2013-08-08 09:20:00,82.6,78.3,30.01,ENE,75,0.0,7.0,87,0.00,,,0.00,Wunderground v.1.15,2013-08-08 13:20:00,
2013-08-08 09:30:00,83.6,78.6,30.01,NE,44,0.0,7.0,85,0.00,,,0.00,Wunderground v.1.15,2013-08-08 13:30:00,
2013-08-08 09:40:00,84.5,78.0,30.02,East,88,0.0,7.0,81,0.00,,,0.00,Wunderground v.1.15,2013-08-08 13:40:00,
2013-08-08 09:50:00,85.6,78.7,30.02,SSE,147,0.0,7.0,80,0.00,,,0.00,Wunderground v.1.15,2013-08-08 13:50:00,
2013-08-08 10:00:00,85.9,78.6,30.02,SSE,165,0.0,7.0,79,0.00,,,0.00,Wunderground v.1.15,2013-08-08 14:00:00,
2013-08-08 10:10:00,84.8,77.9,30.02,South,173,1.0,1.0,80,0.00,,,0.00,Wunderground v.1.15,2013-08-08 14:10:00,
2013-08-08 10:20:00,84.3,77.1,30.02,East,92,0.0,7.0,79,0.00,,,0.00,Wunderground v.1.15,2013-08-08 14:20:00,
2013-08-08 10:30:00,85.4,77.4,30.02,SSW,202,0.0,7.0,77,0.00,,,0.00,Wunderground v.1.15,2013-08-08 14:30:00,
2013-08-08 10:40:00,86.0,77.1,30.02,South,169,0.0,7.0,75,0.00,,,0.00,Wunderground v.1.15,2013-08-08 14:40:00,
2013-08-08 10:50:00,86.4,77.5,30.02,ESE,117,0.0,7.0,75,0.00,,,0.00,Wunderground v.1.15,2013-08-08 14:50:00,
2013-08-08 11:00:00,86.9,78.0,30.02,ESE,103,0.0,7.0,75,0.00,,,0.00,Wunderground v.1.15,2013-08-08 15:00:00,
2013-08-08 11:10:00,87.2,77.5,30.02,SSE,159,0.0,7.0,73,0.00,,,0.00,Wunderground v.1.15,2013-08-08 15:10:00,
2013-08-08 11:20:00,88.1,77.9,30.03,South,186,0.0,7.0,72,0.00,,,0.00,Wunderground v.1.15,2013-08-08 15:20:00,
2013-08-08 11:30:00,87.9,78.2,30.03,SSE,168,0.0,7.0,73,0.00,,,0.00,Wunderground v.1.15,2013-08-08 15:30:00,
2013-08-08 11:40:00,87.8,78.1,30.03,SSE,163,0.0,7.0,73,0.00,,,0.00,Wunderground v.1.15,2013-08-08 15:40:00,
2013-08-08 11:50:00,87.7,77.5,30.03,SSW,201,1.0,7.0,72,0.00,,,0.00,Wunderground v.1.15,2013-08-08 15:50:00,
2013-08-08 12:00:00,88.3,78.1,30.03,ENE,58,0.0,7.0,72,0.00,,,0.00,Wunderground v.1.15,2013-08-08 16:00:00,
2013-08-08 12:10:00,88.6,77.1,30.03,SSW,194,0.0,7.0,69,0.00,,,0.00,Wunderground v.1.15,2013-08-08 16:10:00,
2013-08-08 12:20:00,86.5,78.4,30.04,NE,35,0.0,7.0,77,1.20,,,0.15,Wunderground v.1.15,2013-08-08 16:20:00,
2013-08-08 12:30:00,82.1,77.8,30.04,NE,36,0.0,7.0,87,0.08,,,0.21,Wunderground v.1.15,2013-08-08 16:30:00,
2013-08-08 12:40:00,81.1,78.9,30.04,NE,36,0.0,7.0,93,0.00,,,0.21,Wunderground v.1.15,2013-08-08 16:40:00,
2013-08-08 12:50:00,81.6,79.4,30.04,ENE,57,0.0,7.0,93,0.00,,,0.21,Wunderground v.1.15,2013-08-08 16:50:00,
2013-08-08 13:00:00,82.4,80.2,30.04,ENE,57,0.0,7.0,93,0.00,,,0.21,Wunderground v.1.15,2013-08-08 17:00:00,
2013-08-08 13:10:00,82.7,79.5,30.03,SE,129,0.0,7.0,90,0.00,,,0.21,Wunderground v.1.15,2013-08-08 17:10:00,
2013-08-08 13:20:00,82.7,78.4,30.04,SSW,212,0.0,7.0,87,0.00,,,0.21,Wunderground v.1.15,2013-08-08 17:20:00,
2013-08-08 13:30:00,83.0,79.4,30.03,ESE,110,0.0,7.0,89,0.00,,,0.21,Wunderground v.1.15,2013-08-08 17:30:00,
2013-08-08 13:40:00,83.9,78.5,30.03,ESE,121,0.0,7.0,84,0.00,,,0.21,Wunderground v.1.15,2013-08-08 17:40:00,
2013-08-08 13:50:00,85.2,79.8,30.02,SSW,209,0.0,7.0,84,0.00,,,0.21,Wunderground v.1.15,2013-08-08 17:50:00,
2013-08-08 14:00:00,86.3,80.2,30.02,SSW,211,0.0,7.0,82,0.00,,,0.21,Wunderground v.1.15,2013-08-08 18:00:00,
2013-08-08 14:10:00,87.1,79.8,30.02,SSW,210,0.0,7.0,79,0.00,,,0.21,Wunderground v.1.15,2013-08-08 18:10:00,
2013-08-08 14:20:00,86.7,79.4,30.02,SSE,156,0.0,7.0,79,0.00,,,0.21,Wunderground v.1.15,2013-08-08 18:20:00,
2013-08-08 14:30:00,85.4,77.8,30.02,South,185,1.0,1.0,78,0.00,,,0.21,Wunderground v.1.15,2013-08-08 18:30:00,
2013-08-08 14:40:00,81.5,75.8,30.02,West,276,2.0,2.0,83,0.00,,,0.21,Wunderground v.1.15,2013-08-08 18:40:00,
2013-08-08 14:50:00,80.2,75.3,30.03,SSW,212,1.0,1.0,85,0.00,,,0.21,Wunderground v.1.15,2013-08-08 18:50:00,
2013-08-08 15:00:00,79.7,73.7,30.05,SW,217,1.0,1.0,82,4.72,,,0.34,Wunderground v.1.15,2013-08-08 19:00:00,
2013-08-08 15:10:00,76.1,72.3,30.03,WSW,253,0.0,7.0,88,2.00,,,0.78,Wunderground v.1.15,2013-08-08 19:10:00,
2013-08-08 15:20:00,75.0,72.8,30.01,North,355,0.0,7.0,93,0.15,,,0.91,Wunderground v.1.15,2013-08-08 19:20:00,
2013-08-08 15:30:00,76.9,76.0,30.00,North,5,0.0,7.0,97,0.04,,,0.91,Wunderground v.1.15,2013-08-08 19:30:00,
2013-08-08 15:40:00,78.9,78.3,30.00,North,9,0.0,7.0,98,0.00,,,0.91,Wunderground v.1.15,2013-08-08 19:40:00,
2013-08-08 15:50:00,80.1,79.2,30.00,North,9,0.0,7.0,97,0.00,,,0.91,Wunderground v.1.15,2013-08-08 19:50:00,
2013-08-08 16:00:00,81.6,80.7,29.99,North,9,0.0,7.0,97,0.00,,,0.91,Wunderground v.1.15,2013-08-08 20:00:00,
2013-08-08 16:10:00,81.9,80.3,29.99,North,9,0.0,7.0,95,0.00,,,0.91,Wunderground v.1.15,2013-08-08 20:10:00,
2013-08-08 16:20:00,82.8,81.2,29.99,North,9,0.0,7.0,95,0.00,,,0.91,Wunderground v.1.15,2013-08-08 20:20:00,
2013-08-08 16:30:00,84.0,81.4,30.00,North,9,0.0,7.0,92,0.00,,,0.91,Wunderground v.1.15,2013-08-08 20:30:00,
2013-08-08 16:40:00,85.2,81.2,30.00,ESE,103,0.0,7.0,88,0.00,,,0.91,Wunderground v.1.15,2013-08-08 20:40:00,
2013-08-08 16:50:00,86.6,80.4,30.00,ENE,65,0.0,7.0,82,0.00,,,0.91,Wunderground v.1.15,2013-08-08 20:50:00,
2013-08-08 17:00:00,88.3,81.0,30.00,ENE,77,0.0,7.0,79,0.00,,,0.91,Wunderground v.1.15,2013-08-08 21:00:00,
2013-08-08 17:10:00,88.7,81.0,30.00,ENE,78,0.0,7.0,78,0.00,,,0.91,Wunderground v.1.15,2013-08-08 21:10:00,
2013-08-08 17:20:00,88.0,78.7,30.00,SE,142,0.0,7.0,74,0.00,,,0.91,Wunderground v.1.15,2013-08-08 21:20:00,
2013-08-08 17:30:00,88.8,79.0,30.00,SE,136,2.0,2.0,73,0.00,,,0.91,Wunderground v.1.15,2013-08-08 21:30:00,
2013-08-08 17:40:00,88.5,78.7,29.99,NE,38,3.0,3.0,73,0.00,,,0.91,Wunderground v.1.15,2013-08-08 21:40:00,
2013-08-08 17:50:00,88.3,78.5,29.99,ESE,110,2.0,2.0,73,0.00,,,0.91,Wunderground v.1.15,2013-08-08 21:50:00,
2013-08-08 18:00:00,88.2,78.4,29.99,NE,42,2.0,7.0,73,0.00,,,0.91,Wunderground v.1.15,2013-08-08 22:00:00,
2013-08-08 18:10:00,87.3,77.2,29.99,ENE,63,4.0,4.0,72,0.00,,,0.91,Wunderground v.1.15,2013-08-08 22:10:00,
2013-08-08 18:20:00,87.0,77.3,29.99,NE,47,3.0,7.0,73,0.00,,,0.91,Wunderground v.1.15,2013-08-08 22:20:00,
2013-08-08 18:30:00,86.9,77.2,29.99,East,84,2.0,7.0,73,0.00,,,0.91,Wunderground v.1.15,2013-08-08 22:30:00,
2013-08-08 18:40:00,86.5,77.6,29.99,SSE,168,3.0,7.0,75,0.00,,,0.91,Wunderground v.1.15,2013-08-08 22:40:00,
2013-08-08 18:50:00,86.0,77.9,29.98,ENE,76,1.0,1.0,77,0.00,,,0.91,Wunderground v.1.15,2013-08-08 22:50:00,
2013-08-08 19:00:00,85.6,77.9,29.98,ESE,117,1.0,7.0,78,0.00,,,0.91,Wunderground v.1.15,2013-08-08 23:00:00,
2013-08-08 19:10:00,85.0,77.8,29.98,East,100,2.0,2.0,79,0.00,,,0.91,Wunderground v.1.15,2013-08-08 23:10:00,
2013-08-08 19:20:00,84.5,77.6,29.99,East,80,1.0,1.0,80,0.00,,,0.91,Wunderground v.1.15,2013-08-08 23:20:00,
2013-08-08 19:40:00,83.9,77.8,30.00,East,101,0.0,7.0,82,0.00,,,0.91,Wunderground v.1.15,2013-08-08 23:40:00,
2013-08-08 19:50:00,83.7,77.6,30.00,ENE,69,0.0,7.0,82,0.00,,,0.91,Wunderground v.1.15,2013-08-08 23:50:00,
2013-08-08 20:00:00,83.5,77.8,30.01,ENE,64,0.0,7.0,83,0.00,,,0.91,Wunderground v.1.15,2013-08-09 00:00:00,
2013-08-08 20:10:00,83.3,78.0,30.01,ESE,122,0.0,7.0,84,0.00,,,0.91,Wunderground v.1.15,2013-08-09 00:10:00,
2013-08-08 20:20:00,83.0,77.7,30.02,ENE,69,0.0,7.0,84,0.00,,,0.91,Wunderground v.1.15,2013-08-09 00:20:00,
2013-08-08 20:30:00,82.7,77.7,30.02,East,101,0.0,7.0,85,0.00,,,0.91,Wunderground v.1.15,2013-08-09 00:30:00,
2013-08-08 20:40:00,82.4,77.8,30.02,ENE,65,0.0,7.0,86,0.00,,,0.91,Wunderground v.1.15,2013-08-09 00:40:00,
2013-08-08 20:50:00,82.1,77.8,30.02,ESE,112,0.0,7.0,87,0.00,,,0.91,Wunderground v.1.15,2013-08-09 00:50:00,
2013-08-08 21:00:00,81.7,77.5,30.02,East,95,0.0,7.0,87,0.00,,,0.91,Wunderground v.1.15,2013-08-09 01:00:00,
2013-08-08 21:10:00,81.5,77.6,30.03,ESE,119,0.0,7.0,88,0.00,,,0.91,Wunderground v.1.15,2013-08-09 01:10:00,
2013-08-08 21:20:00,81.2,77.6,30.03,East,90,0.0,7.0,89,0.00,,,0.91,Wunderground v.1.15,2013-08-09 01:20:00,
2013-08-08 21:30:00,81.2,77.6,30.04,East,96,0.0,7.0,89,0.00,,,0.91,Wunderground v.1.15,2013-08-09 01:30:00,
2013-08-08 21:40:00,81.1,77.5,30.05,East,96,0.0,7.0,89,0.00,,,0.91,Wunderground v.1.15,2013-08-09 01:40:00,
2013-08-08 21:50:00,81.1,77.5,30.05,ENE,58,0.0,7.0,89,0.00,,,0.91,Wunderground v.1.15,2013-08-09 01:50:00,
2013-08-08 22:00:00,81.0,77.4,30.05,ESE,123,0.0,7.0,89,0.00,,,0.91,Wunderground v.1.15,2013-08-09 02:00:00,
2013-08-08 22:10:00,81.0,77.4,30.06,ENE,71,0.0,7.0,89,0.00,,,0.91,Wunderground v.1.15,2013-08-09 02:10:00,
2013-08-08 22:20:00,80.9,77.4,30.06,ENE,74,0.0,7.0,89,0.00,,,0.91,Wunderground v.1.15,2013-08-09 02:20:00,
2013-08-08 22:30:00,80.8,77.3,30.06,ESE,109,0.0,7.0,89,0.00,,,0.91,Wunderground v.1.15,2013-08-09 02:30:00,
2013-08-08 22:40:00,80.6,77.4,30.06,ESE,107,0.0,7.0,90,0.00,,,0.91,Wunderground v.1.15,2013-08-09 02:40:00,
2013-08-08 22:50:00,80.4,77.2,30.06,East,90,0.0,7.0,90,0.00,,,0.91,Wunderground v.1.15,2013-08-09 02:50:00,
2013-08-08 23:00:00,80.3,77.1,30.06,ENE,59,0.0,7.0,90,0.00,,,0.91,Wunderground v.1.15,2013-08-09 03:00:00,
2013-08-08 23:10:00,80.0,76.8,30.07,East,79,0.0,7.0,90,0.00,,,0.91,Wunderground v.1.15,2013-08-09 03:10:00,
2013-08-08 23:20:00,79.9,77.0,30.07,ESE,108,0.0,7.0,91,0.00,,,0.91,Wunderground v.1.15,2013-08-09 03:20:00,
2013-08-08 23:30:00,79.8,76.9,30.07,East,96,0.0,7.0,91,0.00,,,0.91,Wunderground v.1.15,2013-08-09 03:30:00,
2013-08-08 23:40:00,79.5,76.6,30.06,East,96,0.0,7.0,91,0.00,,,0.91,Wunderground v.1.15,2013-08-09 03:40:00,
2013-08-08 23:50:00,79.3,76.4,30.07,East,96,0.0,7.0,91,0.00,,,0.91,Wunderground v.1.15,2013-08-09 03:50:00,